Glenwood Springs, CO

4:35 PM MST on February 09, 2016 (GMT -0700)
Sunlight Mountain

Weather History for K5SM - August, 2013

Change the Weather History Date:

Friday, August 23, 2013

  Actual Average (KRIL) Record (KRIL)
Temperature  
Mean Temperature 58 °F 69 °F  
Max Temperature 66 °F 87 °F 99 °F (1931)
Min Temperature 50 °F 52 °F 37 °F (1959)
Degree Days  
Heating Degree Days 7 0  
Month to date heating degree days 0  
Since 1 June heating degree days 60  
Since 1 July heating degree days 1  
Cooling Degree Days 0 4  
Month to date cooling degree days 147  
Year to date cooling degree days 490  
Since 1 June cooling degree days 483  
Growing Degree Days 8 (Base 50)    
Moisture  
Dew Point 45 °F    
Average Humidity 71    
Maximum Humidity 94    
Minimum Humidity 49    
Precipitation  
Precipitation 0.00 in 0.04 in 0.56 in (2014)
Month to date precipitation 1.01  
Year to date precipitation 8.58  
Sea Level Pressure  
Sea Level Pressure 30.52 in    
Wind  
Wind Speed 1 mph (WNW)    
Max Wind Speed 8 mph    
Max Gust Speed -    
Visibility 10 miles    
Events Rain , Thunderstorm    
T = Trace of Precipitation, MM = Missing Value Source: NWS Daily Summary

Daily Weather History Graph

Daily Weather History Graph

Search for Another Location

Airport or City:

Trip Planner

Search our weather history database for the weather conditions in past years. The results will help you decide how hot, cold, wet, or windy it might be!

Date:

Astronomy

Aug. 23, 2013 Rise Set
Actual Time 6:29 AM MDT 7:53 PM MDT
Civil Twilight 6:01 AM MDT 8:21 PM MDT
Nautical Twilight 5:28 AM MDT 8:55 PM MDT
Astronomical Twilight 4:52 AM MDT 9:30 PM MDT
Moon 9:15 PM MDT (8/23) 9:27 AM MDT (8/23)
Length of Visible Light 14h 19m
Length of Day
13h 23m
Waning Gibbous, 91% of the Moon is Illuminated
Aug 23
Waning Gibbous
Aug 28
Last Quarter
Sep 5
New
Sep 12
First Quarter
Sep 19
Full

Hourly Weather History & Observations

Time (MDT) Temp. Dew Point Humidity Pressure Visibility Wind Dir Wind Speed Gust Speed Precip Events Conditions
12:11 AM 53.6 °F 46.4 °F 77% 30.57 in 10.0 mi ENE 3.5 mph - N/A   Mostly Cloudy
12:31 AM 53.6 °F 46.4 °F 77% 30.57 in 10.0 mi East 3.5 mph - N/A   Mostly Cloudy
12:51 AM 53.6 °F 46.4 °F 77% 30.57 in 10.0 mi East 3.5 mph - N/A   Overcast
1:11 AM 53.6 °F 46.4 °F 77% 30.57 in 10.0 mi Calm Calm - N/A Thunderstorm Overcast
1:31 AM 53.6 °F 46.4 °F 77% 30.57 in 10.0 mi Calm Calm - N/A Thunderstorm Overcast
1:50 AM 53.6 °F 44.6 °F 72% 30.57 in 10.0 mi Calm Calm - N/A Thunderstorm Scattered Clouds
2:11 AM 51.8 °F 44.6 °F 76% 30.57 in 10.0 mi SE 3.5 mph - N/A   Clear
2:30 AM 51.8 °F 44.6 °F 76% 30.57 in 10.0 mi Calm Calm - N/A Thunderstorm Scattered Clouds
2:51 AM 51.8 °F 44.6 °F 76% 30.56 in 10.0 mi Calm Calm - N/A Thunderstorm Scattered Clouds
3:11 AM 51.8 °F 44.6 °F 76% 30.55 in 10.0 mi Calm Calm - N/A Thunderstorm Clear
3:31 AM 51.8 °F 44.6 °F 76% 30.55 in 10.0 mi Calm Calm - N/A   Clear
3:51 AM 51.8 °F 44.6 °F 76% 30.55 in 10.0 mi Calm Calm - N/A   Clear
4:11 AM 51.8 °F 44.6 °F 76% 30.54 in 10.0 mi Calm Calm - N/A   Clear
4:31 AM 51.8 °F 44.6 °F 76% 30.54 in 10.0 mi Calm Calm - N/A Thunderstorm Clear
4:51 AM 51.8 °F 44.6 °F 76% 30.54 in 10.0 mi Calm Calm - N/A   Clear
5:11 AM 53.6 °F 44.6 °F 72% 30.54 in 10.0 mi Calm Calm - N/A   Clear
5:31 AM 51.8 °F 44.6 °F 76% 30.54 in 10.0 mi Calm Calm - N/A   Clear
5:50 AM 51.8 °F 42.8 °F 71% 30.54 in 10.0 mi Calm Calm - N/A   Clear
6:11 AM 51.8 °F 42.8 °F 71% 30.53 in 10.0 mi Calm Calm - N/A   Clear
6:31 AM 51.8 °F 42.8 °F 71% 30.53 in 10.0 mi Calm Calm - N/A   Clear
6:51 AM 51.8 °F 42.8 °F 71% 30.53 in 10.0 mi Calm Calm - N/A   Clear
7:11 AM 51.8 °F 42.8 °F 71% 30.54 in 10.0 mi Calm Calm - N/A   Clear
7:31 AM 53.6 °F 42.8 °F 67% 30.54 in 10.0 mi Calm Calm - N/A   Clear
7:50 AM 53.6 °F 42.8 °F 67% 30.54 in 10.0 mi Calm Calm - N/A   Clear
8:11 AM 53.6 °F 42.8 °F 67% 30.54 in 10.0 mi Calm Calm - N/A   Clear
8:31 AM 53.6 °F 42.8 °F 67% 30.54 in 10.0 mi Calm Calm - N/A   Clear
8:51 AM 55.4 °F 44.6 °F 67% 30.54 in 10.0 mi Calm Calm - N/A   Clear
9:11 AM 57.2 °F 44.6 °F 63% 30.54 in 10.0 mi Calm Calm - N/A   Clear
9:32 AM 59.0 °F 44.6 °F 59% 30.54 in 10.0 mi Calm Calm - N/A   Clear
9:52 AM 60.8 °F 46.4 °F 59% 30.54 in 10.0 mi Calm Calm - N/A   Clear
10:12 AM 60.8 °F 46.4 °F 59% 30.55 in 10.0 mi Calm Calm - N/A   Clear
10:32 AM 62.6 °F 46.4 °F 55% 30.55 in 10.0 mi Calm Calm - N/A   Clear
10:52 AM 62.6 °F 46.4 °F 55% 30.55 in 10.0 mi Calm Calm - N/A   Clear
11:12 AM 64.4 °F 50.0 °F 59% 30.55 in 10.0 mi Calm Calm - N/A   Scattered Clouds
11:31 AM 60.8 °F 44.6 °F 55% 30.55 in 10.0 mi Calm Calm - N/A   Scattered Clouds
11:51 AM 62.6 °F 46.4 °F 55% 30.55 in 10.0 mi Calm Calm - N/A   Mostly Cloudy
12:12 PM 59.0 °F 46.4 °F 63% 30.54 in 10.0 mi North 3.5 mph - N/A   Overcast
12:32 PM 59.0 °F 48.2 °F 67% 30.54 in 10.0 mi North 4.6 mph - N/A Thunderstorm Thunderstorm
12:52 PM 57.2 °F 46.4 °F 67% 30.54 in 10.0 mi Calm Calm - N/A Rain , Thunderstorm Light Thunderstorms and Rain
1:12 PM 59.0 °F 46.4 °F 63% 30.53 in 10.0 mi Calm Calm - N/A   Overcast
1:32 PM 62.6 °F 48.2 °F 59% 30.52 in 10.0 mi Calm Calm - N/A Thunderstorm Overcast
1:52 PM 62.6 °F 46.4 °F 55% 30.51 in 10.0 mi WSW 3.5 mph - N/A Thunderstorm Thunderstorm
2:12 PM 59.0 °F 46.4 °F 63% 30.51 in 10.0 mi West 5.8 mph - N/A   Overcast
2:32 PM 62.6 °F 46.4 °F 55% 30.50 in 10.0 mi WSW 3.5 mph - N/A Thunderstorm Mostly Cloudy
2:52 PM 66.2 °F 46.4 °F 49% 30.49 in 10.0 mi Calm Calm - N/A   Scattered Clouds
3:12 PM 62.6 °F 48.2 °F 59% 30.49 in 10.0 mi Calm Calm - N/A Rain , Thunderstorm Light Thunderstorms and Rain
3:32 PM 64.4 °F 44.6 °F 49% 30.47 in 10.0 mi Calm Calm - N/A Thunderstorm Thunderstorm
3:52 PM 60.8 °F 46.4 °F 59% 30.48 in 10.0 mi North 3.5 mph - N/A Thunderstorm Thunderstorm
4:12 PM 60.8 °F 46.4 °F 59% 30.47 in 7.0 mi Calm Calm - N/A Rain , Thunderstorm Thunderstorms and Rain
4:31 PM 51.8 °F 50.0 °F 94% 30.47 in 1.0 mi SW 4.6 mph - N/A Rain , Thunderstorm Heavy Thunderstorms and Rain
4:51 PM 51.8 °F 50.0 °F 94% 30.50 in 7.0 mi West 8.1 mph - N/A Thunderstorm Thunderstorm
5:12 PM 50.0 °F 46.4 °F 87% 30.50 in 10.0 mi West 4.6 mph - N/A Thunderstorm Thunderstorm
5:32 PM 53.6 °F 44.6 °F 72% 30.50 in 10.0 mi NW 5.8 mph - N/A   Mostly Cloudy
5:52 PM 55.4 °F 46.4 °F 72% 30.48 in 10.0 mi WNW 4.6 mph - N/A Thunderstorm Scattered Clouds
6:12 PM 55.4 °F 42.8 °F 63% 30.48 in 10.0 mi WNW 3.5 mph - N/A   Scattered Clouds
6:32 PM 53.6 °F 42.8 °F 67% 30.48 in 10.0 mi NW 3.5 mph - N/A   Mostly Cloudy
6:52 PM 55.4 °F 44.6 °F 67% 30.47 in 10.0 mi Calm Calm - N/A   Scattered Clouds
7:12 PM 55.4 °F 46.4 °F 72% 30.46 in 10.0 mi Calm Calm - N/A   Scattered Clouds
7:31 PM 55.4 °F 48.2 °F 77% 30.46 in 10.0 mi Calm Calm - N/A   Mostly Cloudy
7:51 PM 53.6 °F 46.4 °F 77% 30.47 in 10.0 mi South 8.1 mph - N/A   Mostly Cloudy
8:12 PM 50.0 °F 46.4 °F 87% 30.46 in 10.0 mi Calm Calm - N/A Rain Light Rain
8:32 PM 50.0 °F 46.4 °F 87% 30.48 in 10.0 mi WNW 5.8 mph - N/A Thunderstorm Thunderstorm
8:51 PM 50.0 °F 46.4 °F 87% 30.48 in 10.0 mi WSW 3.5 mph - N/A Thunderstorm Mostly Cloudy
9:12 PM 50.0 °F 44.6 °F 82% 30.50 in 10.0 mi Calm Calm - N/A Thunderstorm Scattered Clouds
9:32 PM 50.0 °F 44.6 °F 82% 30.51 in 10.0 mi Calm Calm - N/A   Mostly Cloudy
9:52 PM 50.0 °F 44.6 °F 82% 30.51 in 10.0 mi Calm Calm - N/A   Overcast
10:12 PM 51.8 °F 44.6 °F 76% 30.51 in 10.0 mi Calm Calm - N/A   Overcast
10:32 PM 50.0 °F 44.6 °F 82% 30.50 in 10.0 mi Calm Calm - N/A   Overcast
10:51 PM 50.0 °F 44.6 °F 82% 30.49 in 10.0 mi Calm Calm - N/A   Scattered Clouds
11:12 PM 50.0 °F 44.6 °F 82% 30.49 in 10.0 mi Calm Calm - N/A   Clear
11:32 PM 50.0 °F 44.6 °F 82% 30.49 in 10.0 mi Calm Calm - N/A   Mostly Cloudy
11:52 PM 50.0 °F 44.6 °F 82% 30.49 in 10.0 mi Calm Calm - N/A   Overcast